Location: Brachstadt
(48.6975°N, 10.6755°E)
Time: 14:43:44
(UTC+00:00)

Cosmos 1844 Rocket - Pass Details

Date: 18 September 2020
Orbit: 823 x 846 km, 71.0° (Epoch: 23 October)

Event Time Altitude Azimuth Distance (km) Brightness Sun altitude
Rises 17:57:36 0° 152° (SSE) 3,347 5.4 -6.5°
Reaches altitude 10° 18:01:07 10° 129° (SE) 2,422 4.6 -7.1°
Maximum altitude 18:04:02 15° 97° (E) 2,115 4.1 -7.6°
Drops below altitude 10° 18:06:58 10° 65° (ENE) 2,436 4.6 -8.0°
Sets 18:10:30 0° 43° (NE) 3,380 5.5 -8.6°
